Weather in Krasnoselskoye

Russia / Republic of Crimea     45°10′58″N   35°11′21″E
temp.,
°C
wind,
m/s
gust,
m/s
humid.,
%
clouds,
%
prec.,
mm/h
press.,
hPa
HPBL,
m
28 february, sun
sun2800:00+6nnw6990100 2.9 1018547
03:00+6nnw6881100 3.3 1018738
06:00+5nnw7981100 0.1 1019711
09:00+4nw799199 0.4 1020654
12:00+5nnw7882100 0.2 1021742
15:00+5nnw677298 0.5 1021879
18:00+5nw5777100 0.3 1022897
21:00+4nw588093 0.4 1023522
1 march, mon
mon100:00+3wnw468399 0.1 1024438
03:00+2wnw469092 0.2 1024285
06:00+2wnw248897 0.0 1025207
09:00+2wnw448685 0.0 1026319
12:00+4wnw337566 0.1 1027609
15:00+5n437275 0.1 1027654
18:00+3nne237598 0.1 1028513
21:00+2nnw128085 0.1 1029176
2 march, tue
tue200:00+2wnw238236 0.0 1030164
03:00+2wnw347765 0.1 1030300
06:00+2nw457475 0.0 1030345
09:00+2wnw457545 0.0 1030329
12:00+5wnw56583 0.0 10301072
15:00+7w68553 0.0 10281204
18:00+5w696229 0.0 1026914
21:00+3w7137565 0.0 1026673
3 march, wed
wed300:00+3w8147826 0.0 1025551
03:00+5w8128062 0.1 1024551
06:00+4wnw699155 0.0 1024359
09:00+4wnw588552 0.0 1025437
12:00+6wnw587295 0.0 1025726
15:00+7nnw587091 0.1 1025623
18:00+7nnw586593 0.0 1025556
21:00+6n356996 0.1 1027136
4 march, thu
thu400:00+5wnw336530 0.0 102838
03:00+4w226815 0.0 102842
06:00+3wsw22700 0.0 102745
09:00+5s22611 0.0 1027111
12:00+9ssw34540 0.0 1027960
15:00+10ssw665610 0.0 1025945
18:00+8s69701 0.0 1024444
21:00+6s47837 0.0 1023174